Regional Weather Roundup
Issued by NWS Columbia, SC

Home | Current Version | Previous Version | Text Only | Print | Product List | Glossary On
Versions: 1 2 3 4 5 6 7 8 9 10 11 12 13 14 15 16 17 18 19 20 21 22 23 24 25 26 27 28 29 30 31 32 33 34 35 36 37 38 39 40 41 42 43 44 45 46 47 48 49 50
000
ASUS42 KCAE 011610
RWRCAE
REGIONAL WEATHER ROUNDUP
NATIONAL WEATHER SERVICE COLUMBIA SC
1200 PM EDT SAT AUG 01 2015

NOTE: "FAIR" INDICATES FEW OR NO CLOUDS BELOW 12,000 FEET WITH NO
SIGNIFICANT WEATHER AND/OR OBSTRUCTIONS TO VISIBILITY.

NOT ALL STATIONS ARE QUALITY CONTROLLED BY THE NATIONAL
WEATHER SERVICE. USE DATA WITH CAUTION...ESPECIALLY
DEWPOINT OBSERVATIONS.

SCZ001>056-GAZ040-063>065-077-011700-
...UPSTATE SOUTH CAROLINA...

CITY           SKY/WX    TMP DP  RH WIND       PRES   REMARKS
ANDERSON       PTSUNNY   87  60  40 E10       30.00S
SPARTANBURG      N/A     88  59  37 N13       30.00S
CLEMSON        MOSUNNY   89  57  33 E10       30.02S
GREENVILLE     SUNNY     88  57  34 N8        30.02F
GREENWOOD      PTSUNNY   88  57  34 NE9       30.01R
GREER          SUNNY     87  55  33 N12       30.00F
ROCK HILL      SUNNY     88  58  36 VRB3      30.00S
CHESTER        SUNNY     88  54  31 N6        30.01S
LAURENS        MOSUNNY   90  66  45 NE7       30.00S


...CENTRAL SOUTH CAROLINA...

CITY           SKY/WX    TMP DP  RH WIND       PRES   REMARKS
COLUMBIA APT   MOSUNNY   92  62  36 NE7       29.95S
COLUMBIA OWENS SUNNY     91  64  40 VRB7      29.97R
DARLINGTON     SUNNY     91  61  35 E7        29.97S
FLORENCE       SUNNY     91  64  40 NE8       29.95S
MCENTIRE ANGB  MOSUNNY   91  63  38 VRB6      29.96R
ORANGEBURG     SUNNY     90  70  51 NE8       29.95S HX  95
SUMTER SHAW    SUNNY     91  62  37 E9        29.94R
NEWBERRY       PTSUNNY   82  61  47 NE8       30.02S
AIKEN          FAIR      88  59  37 E9        30.00S
BARNWELL       FAIR      84  75  74 SE3       29.96F
MANNING        RAIN      90  66  45 N9        29.94S
CAMDEN         FAIR      88  63  42 N6        29.98S
LANCASTER      MOSUNNY   88  61  40 E9        29.99F
WINNSBORO      SUNNY     88  61  40 NE10      29.98S


...EASTERN AND COASTAL SOUTH CAROLINA...

CITY           SKY/WX    TMP DP  RH WIND       PRES   REMARKS
MYRTLE BEACH   PTSUNNY   84  73  70 S9        29.97S
N MYRTLE BCH   MOSUNNY   84  75  74 S8        29.95S
CONWAY         FAIR      88  72  58 SE6       29.95S
MARION         FAIR      90  63  40 CALM      29.95S
HARTSVILLE     FAIR      90  57  33 CALM      29.97S
FLORENCE       SUNNY     91  64  40 NE8       29.95S
DARLINGTON     SUNNY     91  61  35 E7        29.97S
CHARLESTON APT MOSUNNY   86  74  67 E5        29.94R
MOUNT PLEASANT HVY RAIN  79  77  94 E7        29.95R VSB 3/4
WALTERBORO     PTSUNNY   90  73  58 CALM      29.96R HX  98
BEAUFORT       MOSUNNY   88  73  62 CALM      29.94R HX  96


...EASTERN GEORGIA...

CITY           SKY/WX    TMP DP  RH WIND       PRES   REMARKS
AUGUSTA BUSH F MOSUNNY   87  71  58 VRB5      29.95R
AUGUSTA DANIEL PTSUNNY   88  67  49 NE6       29.98R
THOMSON        MOSUNNY   89  68  50 E7        30.02R
WASHINGTON     FAIR      86  64  48 CALM      30.00R
SYLVANIA       MOSUNNY   88  76  68 N7        29.96S HX  98
STATESBORO     MOSUNNY   85  77  76 NE5       29.95S HX  95
SAVANNAH       PTSUNNY   84  74  71 CALM      29.95R


...SOUTHERN NORTH CAROLINA...

CITY           SKY/WX    TMP DP  RH WIND       PRES   REMARKS
CHARLOTTE      MOSUNNY   89  53  29 N8        30.00S
MONROE         SUNNY     87  56  34 VRB7      29.99S
WADESBORO      SUNNY     90  52  27 NW7       29.97F
ROCKINGHAM     SUNNY     87  60  39 NE3       29.97S
RUTHERFORDTON  SUNNY     85  55  35 N6        30.02F
ASHEVILLE      SUNNY     82  53  36 NW18G24   30.09S

$$



USA.gov is the U.S. government's official web portal to all federal, state and local government web resources and services.